Voltar ao catálogo

CZ-6A DEB

AtivoPO
NORAD 61168·DEBRIS·🇨🇳 China

Lançado Aug 6, 2024 de Taiyuan Satellite Launch Center

Loading…

Próximas Passagens (próximas 24 horas)

TLE

AtualizadoSource: Space-Track

Época: Sep 13, 2026, 05:45 UTC

1 61168U 24140RN  26256.23962578  .00107433  00000-0  38167-2 0  9991
2 61168  88.1434 171.8270 0025511 166.6716 193.5213 15.28282384111623

Acompanhe CZ-6A DEB em tempo real com AllMySat

Download on the App Store